Stündliche Wetter Czyzewka

Heute, 29 Oktober, Donnerstag

Zeit Temperatur Niederschläge Wind Luftdruck Luftfeuchtigkeit
00:00 +8°C° 0 mm 3 m/S 750 mmHg 94%
01:00 +8°C° 0 mm 3 m/S 750 mmHg 95%
02:00 +8°C° 0 mm 3 m/S 750 mmHg 93%
03:00 +8°C° 0 mm 3 m/S 749 mmHg 91%
04:00 +8°C° 0 mm 3 m/S 749 mmHg 90%
05:00 +7°C° 0.2 mm 4 m/S 749 mmHg 89%
06:00 +7°C° 0.2 mm 4 m/S 748 mmHg 88%
07:00 +8°C° 0.2 mm 5 m/S 748 mmHg 87%
08:00 +8°C° 0.5 mm 5 m/S 748 mmHg 86%
09:00 +9°C° 0.5 mm 5 m/S 748 mmHg 84%
10:00 +9°C° 0.5 mm 5 m/S 748 mmHg 83%
11:00 +9°C° 0.1 mm 6 m/S 749 mmHg 78%
12:00 +10°C° 0.1 mm 7 m/S 749 mmHg 74%
13:00 +10°C° 0.1 mm 7 m/S 749 mmHg 70%
14:00 +9°C° 0.2 mm 7 m/S 750 mmHg 72%
15:00 +9°C° 0.2 mm 6 m/S 750 mmHg 74%
16:00 +8°C° 0.2 mm 6 m/S 750 mmHg 76%
17:00 +8°C° 0.2 mm 6 m/S 751 mmHg 76%
18:00 +8°C° 0.2 mm 7 m/S 751 mmHg 77%
19:00 +8°C° 0.2 mm 7 m/S 752 mmHg 77%
20:00 +6°C° 0 mm 7 m/S 752 mmHg 80%
21:00 +7°C° 0 mm 6 m/S 752 mmHg 82%
22:00 +7°C° 0 mm 6 m/S 753 mmHg 85%
23:00 +6°C° 0 mm 5 m/S 753 mmHg 87%

Morgen, 30 Oktober, Freitag

Zeit Temperatur Niederschläge Wind Luftdruck Luftfeuchtigkeit
00:00 +6°C° 0 mm 5 m/S 753 mmHg 89%
01:00 +6°C° 0 mm 4 m/S 754 mmHg 91%
02:00 +5°C° 0 mm 4 m/S 754 mmHg 91%
03:00 +5°C° 0 mm 3 m/S 754 mmHg 91%
04:00 +5°C° 0 mm 3 m/S 754 mmHg 91%
05:00 +5°C° 0 mm 3 m/S 754 mmHg 90%
06:00 +5°C° 0 mm 3 m/S 754 mmHg 90%
07:00 +5°C° 0 mm 3 m/S 754 mmHg 89%
08:00 +7°C° 0.7 mm 3 m/S 754 mmHg 91%
09:00 +7°C° 0.7 mm 3 m/S 754 mmHg 93%
10:00 +7°C° 0.7 mm 3 m/S 753 mmHg 95%
11:00 +8°C° 1.3 mm 3 m/S 753 mmHg 96%
12:00 +8°C° 1.3 mm 3 m/S 753 mmHg 96%
13:00 +9°C° 1.3 mm 3 m/S 752 mmHg 97%
14:00 +10°C° 0.7 mm 3 m/S 752 mmHg 97%
15:00 +10°C° 0.7 mm 4 m/S 753 mmHg 96%
16:00 +11°C° 0.7 mm 4 m/S 753 mmHg 96%
17:00 +11°C° 1.3 mm 4 m/S 753 mmHg 96%
18:00 +12°C° 1.3 mm 5 m/S 753 mmHg 96%
19:00 +12°C° 1.3 mm 5 m/S 753 mmHg 96%
20:00 +12°C° 0.4 mm 5 m/S 753 mmHg 96%
21:00 +12°C° 0.4 mm 4 m/S 754 mmHg 96%
22:00 +12°C° 0.4 mm 4 m/S 754 mmHg 96%
23:00 +12°C° 0.2 mm 4 m/S 755 mmHg 96%

übermorgen, 31 Oktober, Samstag

Zeit Temperatur Niederschläge Wind Luftdruck Luftfeuchtigkeit
00:00 +12°C° 0.2 mm 4 m/S 755 mmHg 96%
01:00 +12°C° 0.2 mm 4 m/S 755 mmHg 96%
02:00 +12°C° 0.2 mm 4 m/S 756 mmHg 96%
03:00 +12°C° 0.2 mm 3 m/S 756 mmHg 96%
04:00 +12°C° 0.2 mm 3 m/S 756 mmHg 96%
05:00 +13°C° 0.1 mm 2 m/S 757 mmHg 97%
06:00 +13°C° 0.1 mm 2 m/S 757 mmHg 97%
07:00 +13°C° 0.1 mm 2 m/S 757 mmHg 98%
08:00 +13°C° 0.2 mm 2 m/S 757 mmHg 97%
09:00 +13°C° 0.2 mm 2 m/S 758 mmHg 97%
10:00 +13°C° 0.2 mm 1 m/S 758 mmHg 97%
11:00 +13°C° 0.1 mm 1 m/S 758 mmHg 97%
12:00 +13°C° 0.1 mm 1 m/S 758 mmHg 96%
13:00 +14°C° 0.1 mm 1 m/S 758 mmHg 96%
14:00 +13°C° 0 mm 1 m/S 758 mmHg 96%
15:00 +13°C° 0 mm 1 m/S 758 mmHg 97%
16:00 +13°C° 0 mm 1 m/S 758 mmHg 97%
17:00 +13°C° 0 mm 1 m/S 758 mmHg 97%
18:00 +13°C° 0 mm 2 m/S 758 mmHg 97%
19:00 +13°C° 0 mm 2 m/S 758 mmHg 97%
20:00 +13°C° 0 mm 2 m/S 758 mmHg 97%
21:00 +13°C° 0 mm 2 m/S 758 mmHg 96%
22:00 +12°C° 0 mm 3 m/S 758 mmHg 96%
23:00 +12°C° 0 mm 3 m/S 758 mmHg 96%

1 November, Sonntag

Zeit Temperatur Niederschläge Wind Luftdruck Luftfeuchtigkeit
00:00 +11°C° 0 mm 3 m/S 757 mmHg 96%
01:00 +11°C° 0 mm 3 m/S 757 mmHg 96%
02:00 +11°C° 0 mm 4 m/S 757 mmHg 95%
03:00 +11°C° 0 mm 4 m/S 757 mmHg 95%
04:00 +10°C° 0 mm 5 m/S 756 mmHg 94%
05:00 +10°C° 0 mm 5 m/S 756 mmHg 94%
06:00 +10°C° 0 mm 5 m/S 756 mmHg 94%
07:00 +10°C° 0 mm 5 m/S 756 mmHg 93%
08:00 +10°C° 0 mm 5 m/S 756 mmHg 91%
09:00 +12°C° 0 mm 5 m/S 755 mmHg 88%
10:00 +11°C° 0 mm 6 m/S 755 mmHg 85%
11:00 +13°C° 0 mm 6 m/S 755 mmHg 83%
12:00 +13°C° 0 mm 6 m/S 754 mmHg 80%
13:00 +14°C° 0 mm 6 m/S 754 mmHg 77%
14:00 +14°C° 0 mm 5 m/S 754 mmHg 78%
15:00 +13°C° 0 mm 5 m/S 753 mmHg 79%
16:00 +13°C° 0 mm 4 m/S 753 mmHg 81%
17:00 +13°C° 0 mm 4 m/S 753 mmHg 81%
18:00 +13°C° 0 mm 4 m/S 753 mmHg 82%
19:00 +12°C° 0 mm 4 m/S 753 mmHg 83%
20:00 +12°C° 0 mm 4 m/S 753 mmHg 83%
21:00 +13°C° 0 mm 4 m/S 753 mmHg 84%
22:00 +13°C° 0 mm 4 m/S 753 mmHg 84%
23:00 +13°C° 0 mm 4 m/S 753 mmHg 85%

2 November, Montag

Zeit Temperatur Niederschläge Wind Luftdruck Luftfeuchtigkeit
00:00 +13°C° 0 mm 4 m/S 752 mmHg 86%
01:00 +13°C° 0 mm 4 m/S 752 mmHg 87%
02:00 +13°C° 0 mm 4 m/S 752 mmHg 88%
03:00 +13°C° 0 mm 4 m/S 752 mmHg 89%
04:00 +12°C° 0 mm 4 m/S 752 mmHg 90%
05:00 +12°C° 0 mm 4 m/S 752 mmHg 90%
06:00 +13°C° 0 mm 4 m/S 752 mmHg 89%
07:00 +13°C° 0 mm 4 m/S 752 mmHg 88%
08:00 +13°C° 0 mm 4 m/S 752 mmHg 85%
09:00 +14°C° 0 mm 4 m/S 752 mmHg 83%
10:00 +15°C° 0 mm 5 m/S 752 mmHg 80%
11:00 +15°C° 0 mm 4 m/S 752 mmHg 79%
12:00 +17°C° 0 mm 4 m/S 752 mmHg 77%
13:00 +18°C° 0 mm 4 m/S 752 mmHg 76%
14:00 +17°C° 0 mm 4 m/S 752 mmHg 78%
15:00 +17°C° 0 mm 3 m/S 752 mmHg 81%
16:00 +16°C° 0 mm 3 m/S 752 mmHg 84%
17:00 +16°C° 0 mm 3 m/S 752 mmHg 86%
18:00 +14°C° 0 mm 3 m/S 752 mmHg 88%
19:00 +14°C° 0 mm 3 m/S 752 mmHg 90%
20:00 +14°C° 0 mm 3 m/S 753 mmHg 90%
21:00 +14°C° 0 mm 3 m/S 753 mmHg 89%
22:00 +14°C° 0 mm 3 m/S 753 mmHg 89%
23:00 +13°C° 0 mm 3 m/S 753 mmHg 88%

3 November, Dienstag

Zeit Temperatur Niederschläge Wind Luftdruck Luftfeuchtigkeit
00:00 +13°C° 0 mm 3 m/S 753 mmHg 87%
01:00 +13°C° 0 mm 3 m/S 754 mmHg 86%
02:00 +14°C° 0 mm 2 m/S 754 mmHg 86%
03:00 +14°C° 0 mm 2 m/S 754 mmHg 85%
04:00 +14°C° 0 mm 2 m/S 754 mmHg 85%
05:00 +14°C° 0 mm 2 m/S 754 mmHg 84%
06:00 +14°C° 0 mm 2 m/S 755 mmHg 84%
07:00 +14°C° 0 mm 1 m/S 755 mmHg 83%
08:00 +14°C° 0 mm 1 m/S 755 mmHg 82%
09:00 +14°C° 0 mm 1 m/S 755 mmHg 81%
10:00 +15°C° 0 mm 1 m/S 756 mmHg 79%
11:00 +15°C° 0 mm 2 m/S 756 mmHg 78%
12:00 +16°C° 0 mm 2 m/S 756 mmHg 78%
13:00 +16°C° 0 mm 2 m/S 756 mmHg 77%
14:00 +14°C° 0 mm 3 m/S 756 mmHg 79%
15:00 +14°C° 0 mm 3 m/S 756 mmHg 82%
16:00 +13°C° 0 mm 3 m/S 756 mmHg 85%
17:00 +13°C° 0 mm 3 m/S 756 mmHg 87%
18:00 +12°C° 0 mm 3 m/S 757 mmHg 89%
19:00 +12°C° 0 mm 3 m/S 757 mmHg 90%
20:00 +12°C° 0 mm 3 m/S 757 mmHg 91%
21:00 +12°C° 0 mm 3 m/S 757 mmHg 91%
22:00 +12°C° 0 mm 4 m/S 757 mmHg 91%
23:00 +12°C° 0.1 mm 4 m/S 758 mmHg 91%
Mehr zeigen

Wir brauchen deine Erlaubnis

Meteoprog und unser Service Anbieter werden persönliche Daten aufbewahren, so wie Cookies, Geräte Bezeichnung oder ähnliche Technologien von deinem Gerät und Prozess, so wie Persönliche Daten Inhalte und Werbungen, genauso wie social Media und den Verkehr zu analysieren.

  • Aufbewahrung und/oder Zugang zu deiner Geräte Informationen.

    Cookies, Geräte Bezeichnung oder andere Informationen, können aufbewahrt oder Zugang zu deinem Gerät erhalten, für den Grund, der oben angegeben wird.

  • Personalisierte Werbung und Inhalte, Messungen, Einblick in das Publikum und Produkt Entwicklung.

    Werbungen und Inhalte können personalisiert werden, basierend auf ein Profil. Mehr Daten können besser personalisierte Werbungen und Inhalte hinzufügen. Werbung und Inhalte können gezeigt und gemessen werden. Einblicke über das Publikum, welche die Werbung gesehen haben und den Inhalt, können abgeleitet werden. So wie Daten können genutzt werden, um es zu verbessern oder die Benutzer Erfahrung zu verbessern das System und die Software.

Wenn du “Ich stimme zu” klickst, erlaubst du uns, die Cookies zu benutzen die Geräte Bezeichnung, den Web oder ähnliche Technologien zu benutzen. Deine Settings, können in deinem Gerät bei deinem Browser geändert werden.

Für den bestimmten Zweck, berechtigten Interessen beruhen darauf, mehr als auf den Inhalt. Du kannst mehr darüber in unseren Privaten und Cookie Politik lesen.